This demonstration page uses our WeatherBlox Daily Observations layout. Learn more.

Left ArrowRight Arrow

Hourly Observations for August 14, 2022

Temp ( °F °C ) Dew Point ( °F °C ) Humidity (%) Winds ( mph kmh ) Pressure ( in mb ) Visibility ( mi km ) Precip ( " mm )
12:53 am 00:53 Cloudy 74 23.3 34 1.1 23 23 N 3 6 29.92 1013 10 16 0.00 0.00
1:53 am 01:53 Cloudy 70 21.1 35 1.7 28 28 Calm 29.93 1014 10 16 0.00 0.00
2:53 am 02:53 Cloudy 70 21.1 33 0.6 25 25 Calm 29.93 1014 10 16 0.00 0.00
3:53 am 03:53 Cloudy 67 19.4 36 2.2 32 32 Calm 29.93 1014 10 16 0.00 0.00
4:53 am 04:53 Cloudy 65 18.3 37 2.8 36 36 NNE 5 7 29.93 1014 10 16 0.00 0.00
5:53 am 05:53 Mostly Cloudy 64 17.8 37 2.8 37 37 Calm 29.94 1014 10 16 0.00 0.00
6:53 am 06:53 Sunny with Smoke 66 18.9 39 3.9 37 37 N 5 7 29.95 1014 6 10 0.00 0.00
7:53 am 07:53 Sunny with Smoke 71 21.7 40 4.4 32 32 N 3 6 29.95 1014 6 10 0.00 0.00
8:53 am 08:53 Sunny with Smoke 79 26.1 41 5 26 26 Calm 29.95 1014 6 10 0.00 0.00
9:53 am 09:53 Sunny with Smoke 86 30 43 6.1 22 22 NNE 3 6 29.93 1014 6 10 0.00 0.00
10:53 am 10:53 Sunny with Smoke 91 32.8 43 6.1 19 19 N 7 11 29.92 1013 10 16 0.00 0.00
11:53 am 11:53 Sunny with Smoke 96 35.6 39 3.9 14 14 undefined N/A 29.90 1012 10 16 0.00 0.00
12:53 pm 12:53 Sunny with Smoke 98 36.7 37 2.8 12 12 VRB 3 6 29.88 1012 10 16 0.00 0.00
1:53 pm 13:53 Sunny with Smoke 100 37.8 30 -1.1 9 9 VRB 3 6 29.86 1011 10 16 0.00 0.00
2:53 pm 14:53 Sunny with Smoke 102 38.9 29 -1.7 8 8 ESE 7 11 29.85 1011 10 16 0.00 0.00
3:53 pm 15:53 Sunny with Smoke 103 39.4 22 -5.6 6 6 SSW 7 11 29.82 1010 10 16 0.00 0.00
4:53 pm 16:53 Sunny with Smoke 104 40 24 -4.4 6 6 VRB 7 11 29.80 1009 10 16 0.00 0.00
5:53 pm 17:53 Sunny with Smoke 103 39.4 23 -5 6 6 SE 8 13 29.79 1009 10 16 0.00 0.00
6:53 pm 18:53 Sunny with Smoke 101 38.3 25 -3.9 7 7 SSE 7 11 29.78 1008 10 16 0.00 0.00
7:53 pm 19:53 Sunny with Smoke 95 35 32 0 11 11 S 7 11 29.78 1008 10 16 0.00 0.00
8:53 pm 20:53 Clear with Smoke 90 32.2 33 0.6 13 13 NW 5 7 29.80 1009 10 16 0.00 0.00
9:53 pm 21:53 Clear with Smoke 86 30 35 1.7 16 16 Calm 29.81 1010 10 16 0.00 0.00
10:53 pm 22:53 Cloudy with Smoke 84 28.9 33 0.6 16 16 Calm 29.82 1010 10 16 0.00 0.00
11:53 pm 23:53 Cloudy with Smoke 80 26.7 34 1.1 19 19 NE 3 6 29.83 1010 10 16 0.00 0.00

Powered by AerisWeather